Погода в Виннице

Погода в Виннице : погода сейчас, прогноз погоды и архив. Всё, что Вы хотите узнать о погоде в Виннице!

Хотите узнать прогноз погоды в Виннице? Тогда Вам сюда: Погода в Виннице

Поиск расширенной информации на нашем сайте:

Другие новости

Новости СМИ2

Главная страница сайта

Новости сайта

03.07.2017

Напоминаем, что на нашем специализированном сайте Метеоцентр.Азия вы можете получить высокодетализированные автоматические прогнозы погоды по пунктам России, СНГ и мира в авиационном формате (включающие направление и скорость ветра, видимость, явления погоды, количество и форму облачности, нижнюю и верхнюю границу облачности).


Погода в Виннице - сегодня

Время (UTC), дата Ветер
(°,м/с) 
Видим.   Явления Облачность Т
(°С)
Тd
(°С)
f(%) Тe
(°С)
Pmin
(гПа)
dP
(гПа)
Po
(мм)
O2
(г/м3)
Тmin Tmax R s Состояние
почвы
21 19.07.17 160 (Ю) 13000 м    3/3 1000 м 
[Sc]
+20.2 +11.8 58 +24  1016.4  -0.2  737  274           
00 20.07.17 140 (ЮВ) 13000 м    4/0 средняя, верхняя 
[Ac trans|Ci fib]
+18.2 +12.1 68 +23  1015.7  -0.9  736  276           
03 20.07.17 210 (ЮЗ) 13000 м    8/6 900 м средняя 
[Sc|Ac trans]
+19.1 +11.7 62 +24  1015.1  -0.5  736  275           
06 20.07.17 230 (ЮЗ) 13000 м    3/0 верхняя 
[Ci fib]
+22.9 +12.6 52 +28  1014.8  0.1  736  271  +18.2         
09 20.07.17 260 (З) 13000 м    5/3 1500 м верхняя 
[Cu med, cong|Ci fib]
+26.8 +10.7 36 +29  1013.6  -0.7  735  268           
12 20.07.17 210 (ЮЗ) 13000 м    4/4 1500 м 
[Cu med, cong]
+29.2 +10.4 31 +31  1012.3  -1  734  265           
15 20.07.17 200 (Ю) 13000 м    6/3 1500 м верхняя 
[Cu med, cong|Ci fib]
+29.6 +10 30 +31  1011.2  -1  734  265           
18 20.07.17 180 (Ю) 13000 м    8/0 средняя, верхняя 
[Ac trans|Ci fib]
+26.8 +11 37 +30  1011.4  -0.1  734  267    +30.6       
21 20.07.17 080 (В) 13000 м    4/0 средняя, верхняя 
[Ac trans|Ci fib]
+18.3 +12.4 68 +24  1013.1  0.7  734  275           
00 21.07.17 тихо ()   13000 м    3/0 средняя 
[Ac trans]
+18 +12.6 71 +23  1013.2  734  275           
03 21.07.17 210 (ЮЗ) 13000 м    3/0 средняя 
[Ac trans]
+18.7 +11 61 +22  1013.1  734  275           
06 21.07.17 220 (ЮЗ) 13000 м    3/0 средняя 
[Ac trans]
+23.9 +13.2 51 +30  1013.2  0.7  735  270  +17.9         
09 21.07.17 220 (ЮЗ) 13000 м    3/3 1500 м 
[Cu hum]
+29.4 +12 34 +34  1013.1  0.5  735  265           
12 21.07.17 190 (Ю) 13000 м    3/3 1500 м 
[Cu hum]
+31.7 +11.9 30 +36  1012.3  -0.5  735  263           
15 21.07.17 180 (Ю) 13000 м    3/3 1500 м 
[Cu hum]
+30.5 +11.7 31 +34  1011.6  -0.8  734  264           
18 21.07.17 170 (Ю) 13000 м    3/0 средняя 
[Ac trans]
+28.5 +13.1 39 +35  1011.6  -0.2  734  265           
21 21.07.17 180 (Ю) 13000 м    ясно 
+24.1 +12.8 49 +30  1012.4  0.3  734  269           
00 22.07.17 200 (Ю) 13000 м    ясно 
+21.7 +11.3 52 +25  1012.4  -0.3  734  272           
03 22.07.17 220 (ЮЗ) 13000 м    3/0 верхняя 
[Ci fib]
+19.3 +11.5 61 +24  1012.7  734  274           
06 22.07.17 260 (З) 13000 м    9/4 1000 м кучево-дожд., средняя 
[Cb cap|Ac trans]
+23 +14.8 60 +32  1012.9  0.6  734  270  +19.2  +3       
09 22.07.17 280 (З) 13000 м    5/3 1500 м верхняя 
[Cu hum|Ci fib]
+24.9 +17.4 63 +39  1013.1  0.5  735  267           
12 22.07.17 300 (СЗ) 13000 м    6/6 1000 м 
[Cu med, cong]
+27.8 +15.8 48 +38  1013  0.2  735  265           
15 22.07.17 320 (СЗ) 13000 м    8/8 1200 м 
[Cu med, cong]
+25.7 +15.9 55 +37  1013.4  0.1  735  267           
18 22.07.17 320 (СЗ) 13000 м    3/3 1000 м 
[Sc]
+22.4 +15.9 67 +33  1014.5  0.7  735  270    +28.2       
21 22.07.17 310 (СЗ) 13000 м    3/0 средняя 
[Ac trans]
+19.1 +15.6 80 +30  1015.4  0.5  736  274           
Время (UTC), дата Ветер
(°,м/с) 
Видим.   Явления Облачность Т
(°С)
Тd
(°С)
f(%) Тe
(°С)
Pmin
(гПа)
dP
(гПа)
Po
(мм)
O2
(г/м3)
Тmin Tmax R s Состояние
почвы

Для получения пояснительной информации подведите курсор к названию столбца.

ПОГОДА в Виннице - архив

Всё, что Вы хотите узнать о погоде в Виннице - удобно и подробно!

Выберите нужную дату (начиная с 1 января 2015* года) и нажмите кнопку "Найти".
Будут отображены архивные сводки погоды по пункту Винница, начиная с указанной даты.


Отображать данные в формате CSV (для использования в таблицах Excel)


Внимание! Наш архив погоды предназначен исключительно для личного некоммерческого использования в познавательных целях. Если Вам необходимы официальные справки о состоянии погоды (для производственных, юридических, коммерческих и т.п. целей), обращайтесь в органы Росгидромета.

*Примечание: данная дата относится к архиву по метеостанциям СССР (Россия, СНГ, Балтия).
Архив по метеостанциям Зарубежной Европы и Азии (кроме Китая) хранится 10 дней, по другим регионам земного шара (Китай, Африка, Америка, Австралия, Океания) - 1 день.

Винница - район местоположения метеостанции


Название, широта, долгота, высота метеостанции:
Винница 49.2°ш. 28.6°д. 298 м над ур. моря [Украина]

Дополнительная информация

В oтличие oт бoльшинства пoгoдных сайтoв мы публикуем пoдрoбную метеoинфoрмацию в детальнoм прoфессиoнальнoм фoрмате.

Характеристики температуры и влажнoсти вoздуха измеряются на высoте 2 м в тени вдали oт зданий и деревьев.
Скoрoсть ветра измеряется на высoте 10 м (на урoвне рoста челoвека скoрoсть ветра ниже в 1.5-2 раза). Если метеoстанция нахoдится в гoрoде или в лесу, тo скoрoсть ветра занижена на 2-4 м/с пo сравнению с oткрытым местoм. Скoрoсть ветра над акватoриями крупных рек и oзёр, а также на вершинах хoлмoв на 2-5 м/с выше, чем в oбычных услoвиях.
Атмoсфернoе давление в разных тoчках местнoсти мoжет значительнo oтличаться oт давления на метеoстанции, в зависимoсти oт услoвий рельефа (при пoдъёме на 10 м давление пoнижается примернo на 1 мм рт.ст.).